This is the latest recevied weather packets stored in our database for station/object DL9DCA-13. If no packets are shown the sender has not sent any weather packets the latest 1 day(s).
| Time | Temp. | Humidity | Pressure | Rain* | Wind** | Luminosity | Snow |
|---|---|---|---|---|---|---|---|
| 1778046012 | 18.89° C | 67% | 1004 hPa | - | - | - | - |
| 1778045412 | 18.89° C | 68% | 1004 hPa | - | - | - | - |
| 1778044812 | 18.89° C | 68% | 1004 hPa | - | - | - | - |
| 1778044212 | 18.89° C | 68% | 1004.7 hPa | - | - | - | - |
| 1778043012 | 18.89° C | 68% | 1004.7 hPa | - | - | - | - |
| 1778042413 | 18.89° C | 68% | 1004 hPa | - | - | - | - |
| 1778041812 | 18.89° C | 68% | 1004.7 hPa | - | - | - | - |
| 1778041212 | 18.89° C | 68% | 1004.7 hPa | - | - | - | - |
| 1778040613 | 18.89° C | 68% | 1004 hPa | - | - | - | - |
| 1778040012 | 18.89° C | 68% | 1004 hPa | - | - | - | - |
| 1778038212 | 18.33° C | 69% | 1003.7 hPa | - | - | - | - |
| 1778037611 | 17.78° C | 69% | 1005.3 hPa | - | - | - | - |
| 1778037012 | 17.78° C | 69% | 1004.7 hPa | - | - | - | - |
| 1778035212 | 18.33° C | 66% | 1004.7 hPa | - | - | - | - |
| 1778034012 | 20° C | 70% | 1004 hPa | - | - | - | - |
| 1778032812 | 20° C | 70% | 1004 hPa | - | - | - | - |
| 1778032212 | 20° C | 70% | 1004 hPa | - | - | - | - |
| 1778031612 | 20° C | 70% | 1004 hPa | - | - | - | - |
| 1778031012 | 20° C | 69% | 1004 hPa | - | - | - | - |
| 1778028611 | 20° C | 69% | 1005 hPa | - | - | - | - |
| 1778028012 | 20° C | 69% | 1005 hPa | - | - | - | - |
| 1778026812 | 20° C | 69% | 1005 hPa | - | - | - | - |
| 1778026212 | 20° C | 69% | 1005 hPa | - | - | - | - |
| 1778023813 | 20° C | 68% | 1005 hPa | - | - | - | - |
| 1778019613 | 20.56° C | 68% | 1004.7 hPa | - | - | - | - |
* Rain since midnight (hover to see other rain measurements)
** Current wind speed in m/s (hover to see current wind gust speed)